Location: Newark
(12.4436°N, 0.6167°W)
Time: 06:52:16
(UTC+00:00)

Vanguard 2 - Pass Details

Date: 13 December 2019
Orbit: 553 x 2938 km, 32.9° (Epoch: 17 January)

Event Time Altitude Azimuth Distance (km) Brightness Sun altitude
Rises 09:02:43 0° 294° (WNW) 6,448 11.8 34.6°
Reaches altitude 10° 09:07:43 10° 288° (WNW) 5,158 11.4 35.5°
Maximum altitude 09:20:33 42° 223° (SW) 2,391 10.4 37.8°
Drops below altitude 10° 09:28:43 10° 154° (SSE) 3,303 11.8 39.3°
Sets 09:31:14 0° 147° (SSE) 3,998 12.1 39.7°
